Location: Unspecified
(0.0000°N, 0.0000°E)
Time: 03:40:11
(UTC+00:00)

Hubble Space Telescope - Visible Passes

Search period start: 14 December 2025 00:00
Search period end: 24 December 2025 00:00
Orbit: 480 x 483 km, 28.5° (Epoch: 13 December)

Date Brightness Start Highest point End Pass type
(mag) Time Alt. Az. Time Alt. Az. Time Alt. Az.
20 Dec 2.4 18:53:08 10° N 18:55:06 14° NNE 18:55:06 14° NNE visible
21 Dec 2.4 18:23:42 10° N 18:25:53 15° NNE 18:28:04 10° ENE visible
21 Dec 3.1 20:01:58 10° WNW 20:02:46 16° WNW 20:02:46 16° WNW visible
22 Dec 0.5 19:32:34 10° WNW 19:36:21 78° SSW 19:36:21 78° SSW visible
23 Dec 0.6 19:03:08 10° WNW 19:06:55 76° SSW 19:10:02 15° SE visible
